Tracking 20040 objects as of 19-Nov-2019
Live streaming from Space Station
objects crossing your sky now

SAKURA 2A (CS-2A)

Track SAKURA 2A (CS-2A) now!
SAKURA 2A (CS-2A) is classified as:


NORAD ID: 13782
Int'l Code: 1983-006A
Perigee: 35,989.5 km
Apogee: 36,088.6 km
Inclination: 14.0 °
Period: 1,448.6 minutes
Semi major axis: 42410 km
RCS: 5.8102 m2 (large)
Launch date: February 4, 1983
Source: Japan (JPN)
Launch site: TANEGASHIMA SPACE CENTER (TNSTA)
aabbcc
Your satellite tracking list
Your tracking list is empty




NASA's NSSDC Master Catalog

Two Line Element Set (TLE):
1 13782U 83006A   19321.55279848 -.00000080 +00000-0 +00000-0 0  9991
2 13782 014.0001 339.9027 0011685 283.8985 262.0951 00.99403120103957
Source of the keplerian elements: AFSPC